Location: Arlington
(31.4185°N, 90.5568°W)
Time: 11:59:27
(UTC+00:00)

Tiangong - Visible Passes

Search period start: 24 September 2021 00:00
Search period end: 04 October 2021 00:00
Orbit: 382 x 385 km, 41.5° (Epoch: 24 September)

Date Brightness Start Highest point End Pass type
(mag) Time Alt. Az. Time Alt. Az. Time Alt. Az.
24 Sep 2.4 10:30:00 27° S 10:30:55 34° SE 10:33:49 10° ENE visible
25 Sep 1.3 11:05:33 17° W 11:07:45 53° NNW 11:10:52 10° NE visible
26 Sep 2.4 10:08:47 40° ENE 10:08:47 40° ENE 10:10:59 10° ENE visible
27 Sep 2.2 10:44:09 28° NW 10:44:48 30° NNW 10:47:40 10° NE visible
28 Sep 4.1 09:47:13 15° NE 09:47:13 15° NE 09:47:54 10° NE visible
28 Sep 3.3 11:19:59 10° NW 11:22:04 16° N 11:24:08 10° NNE visible
29 Sep 3.1 10:22:26 20° N 10:22:26 20° N 10:24:24 10° NE visible
30 Sep 3.6 10:57:37 10° NW 10:59:16 14° N 11:00:59 10° NNE visible
01 Oct 4.0 10:00:34 12° NNE 10:00:34 12° NNE 10:01:07 10° NNE visible
02 Oct 3.6 10:35:43 12° NNW 10:36:27 13° N 10:38:04 10° NNE visible
03 Oct 3.5 11:11:40 10° NNW 11:13:50 17° NNE 11:16:01 10° NE visible
